Time,TemperatureF,DewpointF,PressureIn,WindDirection,WindDirectionDegrees,WindSpeedMPH,WindSpeedGustMPH,Humidity,HourlyPrecipIn,Conditions,Clouds,dailyrainin,SolarRadiationWatts/m^2,SoftwareType,DateUTC
2013-08-21 00:11:00,62.0,46.0,-100.00,NNE,26,8.0,12.0,55,0.00,,,0.52,0.000000,,2013-08-21 07:11:00,
2013-08-21 00:21:00,62.0,46.0,-100.00,NNE,26,8.0,12.0,55,0.00,,,0.52,0.000000,,2013-08-21 07:21:00,
2013-08-21 00:32:00,62.0,46.0,-100.00,NNE,26,8.0,12.0,55,0.00,,,0.52,0.000000,,2013-08-21 07:32:00,
2013-08-21 01:12:00,64.0,47.0,-100.00,NNE,30,11.0,15.0,55,0.00,,,0.52,0.000000,,2013-08-21 08:12:00,
2013-08-21 01:22:00,64.0,47.0,-100.00,NNE,30,11.0,15.0,55,0.00,,,0.52,0.000000,,2013-08-21 08:22:00,
2013-08-21 01:31:00,64.0,47.0,-100.00,NNE,30,11.0,15.0,55,0.00,,,0.52,0.000000,,2013-08-21 08:31:00,
2013-08-21 02:11:00,62.0,48.0,-100.00,NNE,21,16.0,23.0,60,0.01,,,0.53,0.000000,,2013-08-21 09:11:00,
2013-08-21 02:22:00,62.0,48.0,-100.00,NNE,21,16.0,23.0,60,0.01,,,0.53,0.000000,,2013-08-21 09:22:00,
2013-08-21 02:33:00,62.0,48.0,-100.00,NNE,21,16.0,23.0,60,0.01,,,0.53,0.000000,,2013-08-21 09:33:00,
2013-08-21 03:12:00,65.0,44.0,-100.00,NNE,14,12.0,21.0,47,0.00,,,0.53,0.000000,,2013-08-21 10:12:00,
2013-08-21 03:23:00,65.0,44.0,-100.00,NNE,14,12.0,21.0,47,0.00,,,0.53,0.000000,,2013-08-21 10:23:00,
2013-08-21 03:33:00,65.0,44.0,-100.00,NNE,14,12.0,21.0,47,0.00,,,0.53,0.000000,,2013-08-21 10:33:00,
2013-08-21 04:12:00,65.0,44.0,-100.00,NNE,16,5.0,15.0,46,0.00,,,0.45,0.000000,,2013-08-21 11:12:00,
2013-08-21 04:22:00,65.0,44.0,-100.00,NNE,16,5.0,15.0,46,0.00,,,0.45,0.000000,,2013-08-21 11:22:00,
2013-08-21 04:33:00,65.0,44.0,-100.00,NNE,16,5.0,15.0,46,0.00,,,0.45,0.000000,,2013-08-21 11:33:00,
2013-08-21 05:12:00,65.0,44.0,-100.00,North,10,7.0,12.0,46,0.00,,,0.45,0.000000,,2013-08-21 12:12:00,
2013-08-21 05:22:00,65.0,44.0,-100.00,North,10,7.0,12.0,46,0.00,,,0.45,0.000000,,2013-08-21 12:22:00,
2013-08-21 05:32:00,65.0,44.0,-100.00,North,10,7.0,12.0,46,0.00,,,0.45,0.000000,,2013-08-21 12:32:00,
2013-08-21 06:12:00,64.0,42.0,-100.00,North,9,11.0,16.0,45,0.00,,,0.45,0.000000,,2013-08-21 13:12:00,
2013-08-21 06:21:00,64.0,42.0,-100.00,North,9,11.0,16.0,45,0.00,,,0.45,0.000000,,2013-08-21 13:21:00,
2013-08-21 06:32:00,64.0,42.0,-100.00,North,9,11.0,16.0,45,0.00,,,0.45,0.000000,,2013-08-21 13:32:00,
2013-08-21 07:11:00,64.0,44.0,-100.00,North,355,9.0,14.0,48,0.00,,,0.45,9.000000,,2013-08-21 14:11:00,
2013-08-21 07:21:00,64.0,44.0,-100.00,North,355,9.0,14.0,48,0.00,,,0.45,9.000000,,2013-08-21 14:21:00,
2013-08-21 07:32:00,64.0,44.0,-100.00,North,355,9.0,14.0,48,0.00,,,0.45,9.000000,,2013-08-21 14:32:00,
2013-08-21 08:11:00,64.0,44.0,-100.00,North,4,11.0,22.0,49,0.00,,,0.45,39.000000,,2013-08-21 15:11:00,
2013-08-21 08:22:00,64.0,44.0,-100.00,North,4,11.0,22.0,49,0.00,,,0.45,39.000000,,2013-08-21 15:22:00,
2013-08-21 08:34:00,64.0,44.0,-100.00,North,4,11.0,22.0,49,0.00,,,0.45,39.000000,,2013-08-21 15:34:00,
2013-08-21 09:13:00,65.0,46.0,-100.00,NNE,12,11.0,19.0,50,0.00,,,0.45,195.000000,,2013-08-21 16:13:00,
2013-08-21 09:24:00,65.0,46.0,-100.00,NNE,12,11.0,19.0,50,0.00,,,0.45,195.000000,,2013-08-21 16:24:00,
2013-08-21 09:34:00,65.0,46.0,-100.00,NNE,12,11.0,19.0,50,0.00,,,0.45,195.000000,,2013-08-21 16:34:00,
2013-08-21 10:13:00,67.0,50.0,-100.00,North,356,9.0,19.0,54,0.00,,,0.45,399.000000,,2013-08-21 17:13:00,
2013-08-21 10:23:00,67.0,50.0,-100.00,North,356,9.0,19.0,54,0.00,,,0.45,399.000000,,2013-08-21 17:23:00,
2013-08-21 10:34:00,67.0,50.0,-100.00,North,356,9.0,19.0,54,0.00,,,0.45,399.000000,,2013-08-21 17:34:00,
2013-08-21 11:12:00,67.0,50.0,-100.00,NNW,345,5.0,16.0,55,0.00,,,0.45,400.000000,,2013-08-21 18:12:00,
2013-08-21 11:22:00,67.0,50.0,-100.00,NNW,345,5.0,16.0,55,0.00,,,0.45,400.000000,,2013-08-21 18:22:00,
2013-08-21 11:32:00,67.0,50.0,-100.00,NNW,345,5.0,16.0,55,0.00,,,0.45,400.000000,,2013-08-21 18:32:00,
2013-08-21 12:12:00,68.0,50.0,-100.00,ENE,67,4.0,11.0,53,0.00,,,0.45,330.000000,,2013-08-21 19:12:00,
2013-08-21 12:22:00,68.0,50.0,-100.00,ENE,67,4.0,11.0,53,0.00,,,0.45,330.000000,,2013-08-21 19:22:00,
2013-08-21 12:32:00,68.0,50.0,-100.00,ENE,67,4.0,11.0,53,0.00,,,0.45,330.000000,,2013-08-21 19:32:00,
2013-08-21 13:11:00,74.0,54.0,-100.00,NE,38,4.0,14.0,49,0.00,,,0.45,935.000000,,2013-08-21 20:11:00,
2013-08-21 13:22:00,74.0,54.0,-100.00,NE,38,4.0,14.0,49,0.00,,,0.45,935.000000,,2013-08-21 20:22:00,
2013-08-21 13:32:00,74.0,54.0,-100.00,NE,38,4.0,14.0,49,0.00,,,0.45,935.000000,,2013-08-21 20:32:00,
2013-08-21 14:12:00,71.0,51.0,-100.00,NE,51,3.0,9.0,49,0.00,,,0.03,671.000000,,2013-08-21 21:12:00,
2013-08-21 14:21:00,71.0,51.0,-100.00,NE,51,3.0,9.0,49,0.00,,,0.03,671.000000,,2013-08-21 21:21:00,
2013-08-21 14:34:00,71.0,51.0,-100.00,NE,51,3.0,9.0,49,0.00,,,0.03,671.000000,,2013-08-21 21:34:00,
2013-08-21 15:14:00,71.0,54.0,-100.00,NW,318,1.0,9.0,54,0.00,,,0.03,459.000000,,2013-08-21 22:14:00,
2013-08-21 15:24:00,71.0,54.0,-100.00,NW,318,1.0,9.0,54,0.00,,,0.03,459.000000,,2013-08-21 22:24:00,
2013-08-21 15:34:00,71.0,54.0,-100.00,NW,318,1.0,9.0,54,0.00,,,0.03,459.000000,,2013-08-21 22:34:00,
2013-08-21 16:12:00,71.0,54.0,-100.00,ENE,65,4.0,8.0,55,0.00,,,0.03,316.000000,,2013-08-21 23:12:00,
2013-08-21 16:22:00,71.0,54.0,-100.00,ENE,65,4.0,8.0,55,0.00,,,0.03,316.000000,,2013-08-21 23:22:00,
2013-08-21 16:33:00,71.0,54.0,-100.00,ENE,65,4.0,8.0,55,0.00,,,0.03,316.000000,,2013-08-21 23:33:00,
2013-08-21 17:12:00,69.0,53.0,-100.00,NE,34,3.0,7.0,56,0.00,,,0.03,251.000000,,2013-08-22 00:12:00,
2013-08-21 17:21:00,69.0,53.0,-100.00,NE,34,3.0,7.0,56,0.00,,,0.03,251.000000,,2013-08-22 00:21:00,
2013-08-21 17:32:00,69.0,53.0,-100.00,NE,34,3.0,7.0,56,0.00,,,0.03,251.000000,,2013-08-22 00:32:00,
2013-08-21 18:11:00,66.0,51.0,-100.00,NNE,14,4.0,8.0,58,0.00,,,0.01,63.000000,,2013-08-22 01:11:00,
2013-08-21 18:22:00,66.0,51.0,-100.00,NNE,14,4.0,8.0,58,0.00,,,0.01,63.000000,,2013-08-22 01:22:00,
2013-08-21 18:32:00,66.0,51.0,-100.00,NNE,14,4.0,8.0,58,0.00,,,0.01,63.000000,,2013-08-22 01:32:00,
2013-08-21 19:12:00,63.0,55.0,-100.00,ENE,57,5.0,9.0,74,0.00,,,0.01,50.000000,,2013-08-22 02:12:00,
2013-08-21 19:22:00,63.0,55.0,-100.00,ENE,57,5.0,9.0,74,0.00,,,0.01,50.000000,,2013-08-22 02:22:00,
2013-08-21 19:32:00,63.0,55.0,-100.00,ENE,57,5.0,9.0,74,0.00,,,0.01,50.000000,,2013-08-22 02:32:00,
2013-08-21 20:12:00,64.0,48.0,-100.00,ENE,73,3.0,9.0,57,0.00,,,0.01,8.000000,,2013-08-22 03:12:00,
2013-08-21 20:22:00,64.0,48.0,-100.00,ENE,73,3.0,9.0,57,0.00,,,0.01,8.000000,,2013-08-22 03:22:00,
2013-08-21 20:34:00,64.0,48.0,-100.00,ENE,73,3.0,9.0,57,0.00,,,0.01,8.000000,,2013-08-22 03:34:00,
2013-08-21 21:14:00,63.0,48.0,-100.00,East,87,3.0,5.0,59,0.00,,,0.01,0.000000,,2013-08-22 04:14:00,
2013-08-21 21:23:00,63.0,48.0,-100.00,East,87,3.0,5.0,59,0.00,,,0.01,0.000000,,2013-08-22 04:23:00,
2013-08-21 21:34:00,63.0,48.0,-100.00,East,87,3.0,5.0,59,0.00,,,0.01,0.000000,,2013-08-22 04:34:00,
2013-08-21 22:12:00,64.0,49.0,-100.00,East,96,0.0,4.0,58,0.00,,,0.01,0.000000,,2013-08-22 05:12:00,
2013-08-21 22:22:00,64.0,49.0,-100.00,East,96,0.0,4.0,58,0.00,,,0.01,0.000000,,2013-08-22 05:22:00,
2013-08-21 22:33:00,64.0,49.0,-100.00,East,96,0.0,4.0,58,0.00,,,0.01,0.000000,,2013-08-22 05:33:00,
2013-08-21 23:12:00,64.0,48.0,-100.00,ENE,72,0.0,4.0,57,0.00,,,0.01,0.000000,,2013-08-22 06:12:00,
2013-08-21 23:22:00,64.0,48.0,-100.00,ENE,72,0.0,4.0,57,0.00,,,0.01,0.000000,,2013-08-22 06:22:00,
2013-08-21 23:32:00,64.0,48.0,-100.00,ENE,72,0.0,4.0,57,0.00,,,0.01,0.000000,,2013-08-22 06:32:00,